Object X
1 42786U 17036X 17180.58838241 .00000860 00000-0 42372-4 0 9996
2 42786 097.4495 240.2786 0011233 225.7474 134.2840 15.20596580000987
Object Y
1 42787U 17036Y 17180.58830141 .00001459 00000-0 69623-4 0 9991
2 42787 097.4494 240.2784 0011157 225.6657 134.3665 15.20620091000758
Object Z
1 42788U 17036Z 17180.52249390 .00001209 00000-0 58258-4 0 9991
2 42788 097.4495 240.2134 0011143 225.9385 134.0933 15.20618714000973
Object AA
1 42789U 17036AA 17180.52230991 .00001163 00000-0 56094-4 0 9994
2 42789 097.4494 240.2136 0010955 225.8777 134.1558 15.20662689000894
Object AB
1 42790U 17036AB 17180.58784257 .00001346 00000-0 64301-4 0 9994
2 42790 097.4491 240.2785 0010694 225.9128 134.1228 15.20728431000908
Object AC
1 42791U 17036AC 17180.58765423 .00001055 00000-0 51003-4 0 9991
2 42791 097.4493 240.2791 0010537 226.4405 133.5956 15.20771281000898
Object AD
1 42792U 17036AD 17180.58760844 .00001192 00000-0 57200-4 0 9991
2 42792 097.4491 240.2788 0010498 226.8461 133.1898 15.20782984000911
Object AE
1 42793U 17036AE 17180.58669941 .00000819 00000-0 40043-4 0 9990
2 42793 097.4491 240.2799 0009525 227.3876 132.6557 15.20997104000984
Object AF
1 42794U 17036AF 17180.52058221 .00000651 00000-0 32403-4 0 9993
2 42794 097.4489 240.2150 0008732 223.9343 136.1199 15.21075654000892
Object AG
1 42795U 17036AG 17180.58617175 .00001224 00000-0 58099-4 0 9995
2 42795 097.4485 240.2797 0008628 224.5160 135.5384 15.21126528000902
Object AH
1 42796U 17036AH 17180.39070916 .00001088 00000-0 52647-4 0 9992
2 42796 097.4494 240.0835 0010945 226.2994 133.7335 15.20660617000887
/EX
1
0
LilacSat-1 has been designated LilacSat-OSCAR-90 or LO-90 per OSCAR Number
Administrator Bill Tynan, W3XO.
India Launches 40th PSLV Rocket With 31 Satellites On-board
Launching on its 40th flight, the PSLV rocketed away from the Satish Dhawan
Space Center, a facility nestled on Sriharikota Island on India's east
coast, at 0359 GMT Friday (11:59 p.m. EDT Thursday). The 144-foot-tall
(44-meter) launcher thundered into a mostly sunny sky over the launch base,
where liftoff occurred at 9:29 a.m. local time. See AMSAT News Service
176.01 dated 6-25-2017 for details at
http://www.amsat.org/pipermail/ans/2017/000971.html
Of the 31 satellites launched (plus the launch vehicle makes 32) there are
15 satellites with amateur frequency downlinks as follows:
Max Valier Satellite 145.860 MHz
Venta 1 437.325 MHz
Pegasus 436.670 MHz
NUDTSat 436.270 MHz
VZLUSAT 1 437.240 MHz
DragSail-CubeSat 437.300 MHz, 2403 MHz, and 2405-2445 MHz
UCLSat 435.975 MHz
InflateSail 436.060 MHz
URSA MAIOR 435.950 MHz
LithuanicaSAT 2 437.265 MHz
SUCHAI 1 437.225 MHz
Aalto 1 437.220 MHz and 2402.00 MHz
Robusta 1B 437.325 MHz
D-Sat 437.505 MHz
skCUBE 437.100 MHz and 2401 MHz
The "cloud" of 32 objects is too close together to identify individuals so
we will have to wait for them to separate a bit. There are so many that
SpaceTrack had to use two letter designations (AA, AB, etc.) to specify all
of them. Thus 32 new TLEs NORAD CAT ID 42765 through 42796 have been added
this week. (Note: SpaceTrack does not use "I" or "O" in their SATNAMEs
presumably to avoid confusion with "1" and "0".)
Thanks to AMSAT News Service (ANS) for info.
1
0
SB KEPS @ AMSAT $ORB17173.N
2Line Orbital Elements 17173.AMSAT
HR AMSAT ORBITAL ELEMENTS FOR AMATEUR SATELLITES IN NASA FORMAT
FROM WA5QGD FORT WORTH,TX June 22, 2017
BID: ORB17173.N
DECODE 2-LINE ELSETS WITH THE FOLLOWING KEY:
1 AAAAAU 00 0 0 BBBBB.BBBBBBBB .CCCCCCCC 00000-0 00000-0 0 DDDZ
2 AAAAA EEE.EEEE FFF.FFFF GGGGGGG HHH.HHHH III.IIII JJ.JJJJJJJJKKKKKZ
KEY: A-CATALOGNUM B-EPOCHTIME C-DECAY D-ELSETNUM E-INCLINATION F-RAAN
G-ECCENTRICITY H-ARGPERIGEE I-MNANOM J-MNMOTION K-ORBITNUM Z-CHECKSUM
TO ALL RADIO AMATEURS BT
AO-07
1 07530U 74089B 17173.43580126 -.00000041 00000-0 22815-4 0 9999
2 07530 101.6306 142.0167 0011794 314.1942 159.2850 12.53627466949285
UO-11
1 14781U 84021B 17173.56578394 .00000101 00000-0 18723-4 0 9999
2 14781 097.6968 219.0834 0008642 172.1773 187.9578 14.82903173770145
LO-19
1 20442U 90005G 17173.38139069 -.00000018 00000-0 93576-5 0 9999
2 20442 098.5759 109.8428 0012641 128.7355 231.4961 14.32862453432300
HUBBLE
1 20580U 90037B 17173.63983194 .00000492 00000-0 19331-4 0 9992
2 20580 028.4704 331.4908 0002610 230.4386 216.6064 15.08786561291021
MET-2/21
1 22782U 93055A 17173.59039451 .00000003 00000-0 -10515-4 0 9998
2 22782 082.5480 019.2995 0023505 057.6294 010.9761 13.83800577202171
AO-27
1 22825U 93061C 17173.51035735 -.00000009 00000-0 14074-4 0 9996
2 22825 098.8125 139.1570 0007714 322.6643 037.4001 14.29998859237893
IO-26
1 22826U 93061D 17173.47023358 -.00000017 00000-0 11170-4 0 9993
2 22826 098.8067 139.1979 0008092 311.8887 048.1604 14.30327660238080
FO-29
1 24278U 96046B 17173.63555217 -.00000042 00000-0 -36506-5 0 9994
2 24278 098.5632 056.1681 0349756 323.4579 034.3148 13.53076675029368
NOAA-15
1 25338U 98030A 17173.54835289 .00000081 00000-0 53098-4 0 9992
2 25338 098.7814 184.4699 0010431 184.7895 175.3186 14.25800746993775
GO-32
1 25397U 98043D 17173.39583663 -.00000026 00000-0 73462-5 0 9998
2 25397 098.6102 115.6227 0001562 033.4765 326.6513 14.23623760984315
ISS
1 25544U 98067A 17173.57229360 .00001906 00000-0 36110-4 0 9994
2 25544 051.6433 011.4847 0004451 309.9001 085.1029 15.54072654062591
NO-44
1 26931U 01043C 17173.21172853 -.00000033 00000-0 19018-4 0 9997
2 26931 067.0520 078.2331 0007783 264.8252 095.1961 14.30464070820999
SO-50
1 27607U 02058C 17173.42592209 -.00000002 00000-0 20042-4 0 9994
2 27607 064.5556 109.5531 0029619 093.8748 266.5742 14.75333083779759
CO-55
1 27844U 03031E 17173.49300566 .00000054 00000-0 44079-4 0 9991
2 27844 098.6889 182.4223 0009227 339.5112 020.5694 14.22043068725034
CO-57
1 27848U 03031J 17173.49421703 .00000046 00000-0 41091-4 0 9994
2 27848 098.6983 182.6848 0009353 349.2110 010.8866 14.21657104724925
RS-22
1 27939U 03042A 17173.56720088 .00000122 00000-0 30328-4 0 9999
2 27939 097.9399 318.1341 0012418 203.4300 224.9280 14.66572168733968
NOAA-18
1 28654U 05018A 17173.58031279 .00000002 00000-0 26642-4 0 9999
2 28654 099.1818 195.9266 0015293 059.3589 300.9087 14.12340469623024
CO-58
1 28895U 05043F 17173.43837796 .00000127 00000-0 33097-4 0 9996
2 28895 097.8652 335.4880 0018101 124.6095 235.6818 14.63402803621025
Falconsat-3
1 30776U 07006E 17173.05053624 .00002220 00000-0 71153-4 0 9997
2 30776 035.4373 035.7653 0003440 348.0520 012.0124 15.32288098569008
CO-65
1 32785U 08021C 17173.48829888 .00000243 00000-0 32204-4 0 9994
2 32785 097.5660 197.5196 0014014 145.3180 214.8954 14.87893187495614
AAUSAT2
1 32788U 08021F 17173.52536178 .00000618 00000-0 63190-4 0 9993
2 32788 097.5583 209.3096 0013597 110.4255 249.8427 14.93879580496378
DO-64
1 32789U 08021G 17173.61019931 .00000967 00000-0 72514-4 0 9994
2 32789 097.5591 231.7280 0014749 084.8268 275.4641 15.04892221497587
CO-66
1 32791U 08021J 17173.07845780 .00000380 00000-0 44563-4 0 9998
2 32791 097.5631 201.5082 0014683 132.5119 227.7343 14.90227990495792
RS-30
1 32953U 08025A 17173.59526938 .00000035 00000-0 18088-3 0 9999
2 32953 082.5030 236.2896 0017590 272.8724 087.0343 12.43077282412099
PRISM
1 33493U 09002B 17173.51564224 .00000780 00000-0 75628-4 0 9998
2 33493 098.1691 056.1766 0017095 066.0878 294.2026 14.95684604456575
